Regional Weather Roundup
Issued by NWS

Home | Current Version | Previous Version | Graphics & Text | Print | Product List | Glossary On
Versions: 1 2 3 4 5 6 7 8 9 10 11 12 13 14 15 16 17 18 19 20 21 22 23 24 25 26 27 28 29 30 31 32 33 34 35 36 37 38 39 40 41 42 43 44 45 46 47 48 49 50
000
ASUS43 KMPX 201110
RWRMN
WEATHER ROUNDUP FOR MINNESOTA
NATIONAL WEATHER SERVICE TWIN CITIES/CHANHASSEN MN
600 AM CDT WED SEP 20 2017


NOTE: "FAIR" INDICATES FEW OR NO CLOUDS BELOW 12,000 FEET WITH NO
SIGNIFICANT WEATHER AND/OR OBSTRUCTIONS TO VISIBILITY. N/A MEANS
CURRENT SKY AND/OR WEATHER CONDITIONS ARE NOT AVAILABLE.

MNZ060>063-068>070-201200-
   Twin Cities Metro

CITY           SKY/WX    TMP DP  RH WIND       PRES   REMARKS
TWIN CITIES    CLOUDY    71  68  90 S9        29.61S
ST PAUL        CLOUDY    70  68  93 SE12      29.62S
CRYSTAL        CLOUDY    69  65  86 S8        29.59S
BLAINE         PTCLDY    72  70  94 S10       29.60S
LAKEVILLE      MOCLDY    70  70 100 S7        29.62R
EDEN PRAIRIE   CLOUDY    71  67  87 S9        29.60S
SOUTH ST PAUL  CLOUDY    70  68  94 S7        29.62R
LAKE ELMO      CLOUDY    70  66  88 S10       29.64R
$$
MNZ001>005-007-008-013>017-022>024-027-028-201200-
   Northwest Minnesota

CITY           SKY/WX    TMP DP  RH WIND       PRES   REMARKS
BEMIDJI        CLOUDY    61  60  98 SW12      29.54R
HALLOCK        CLOUDY    57  55  94 W10       29.48R
ROSEAU         RAIN      61  55  82 S14       29.45R
WARROAD        MOCLDY    61  55  82 S12       29.47R
THIEF RVR FALL CLOUDY    57  55  93 W13       29.54R
CROOKSTON      CLOUDY    57  54  88 W8        29.54R
FOSSTON        PTCLDY    55  55 100 W8G16     29.54R
DETROIT LAKES  MOCLDY    57  54  88 W13G22    29.61R
MOORHEAD       MOCLDY    55  50  82 W9        29.61R
PARK RAPIDS    CLOUDY    63  61  93 SW12      29.55R
MAHNOMEN       PTSUNNY   56  55  94 W17       29.58R
$$
MNZ006-009>011-018-025>026-201200-
   North Central Minnesota

CITY           SKY/WX    TMP DP  RH WIND       PRES   REMARKS
BAUDETTE       CLOUDY    61  60  97 SE15G24   29.48R
FLAG ISLAND    MOCLDY    61  59  94 S16       29.43R
INTL FALLS     CLOUDY    60  58  92 SE8       29.53R
WASKISH        CLOUDY    61  61 100 SE5       29.48F
BIG FORK       MOCLDY    63  61  94 S5        29.57R
LONGVILLE      CLOUDY    61  59  94 SE8       29.55F
GRAND RAPIDS   CLOUDY    60  59  96 SE8       29.60S
CRANE LAKE     CLOUDY    59  59 100 CALM      29.55F
ORR            CLOUDY    59  57  94 S5        29.55S
COOK           CLOUDY    61  59  94 S6        29.59R
WALKER         CLOUDY    60  59  96 SE10G20   29.52S
$$
MNZ012-019>021-037-201200-
   Northeast Minnesota

CITY           SKY/WX    TMP DP  RH WIND       PRES   REMARKS
DULUTH         FOG       59  59 100 SE17G25   29.64F VSB 1/4
ELY            LGT RAIN  59  57  94 SE18G24   29.59F
HIBBING        CLOUDY    60  59  96 SE8G21    29.62R
EVELETH        CLOUDY    61  60  96 SE9       29.62R
DULUTH HARBOR  CLOUDY    61  61 100 E7        29.65F
TWO HARBORS    CLOUDY    63  57  82 E9        29.66F HAZE
GRAND MARAIS     N/A     57  56  96 NE9       29.79R
G MARAIS ARPRT RAIN      54  50  87 E8        29.82R
$$
MNZ029>031-032-039>041-046>048-054>057-064-201200-
   West Central Minnesota

CITY           SKY/WX    TMP DP  RH WIND       PRES   REMARKS
FERGUS FALLS   CLOUDY    57  57 100 W10G16    29.62R
WHEATON        CLOUDY    57  52  82 W10G17    29.67R
MORRIS         CLOUDY    59  57  94 W7        29.63R
ALEXANDRIA     CLOUDY    62  61  96 W14G24    29.63R
ELBOW LAKE     CLOUDY    57  56  97 NW12G20   29.63R
WADENA         CLOUDY    61  61 100 W7        29.55R
GLENWOOD       CLOUDY    61  61 100 W12       29.63R FOG
APPLETON       PTCLDY    61  55  82 W8        29.64R
BENSON         PTCLDY    59  55  88 NW8       29.66R
ORTONVILLE     MOCLDY    59  55  88 W8        29.66R
MADISON        PTCLDY    61  61 100 W7        29.66R
WILLMAR        FAIR      61  61 100 W8        29.65R
$$
MNZ033>034-036-042>043-049>051-058-059-201200-
   Central Minnesota

CITY           SKY/WX    TMP DP  RH WIND       PRES   REMARKS
ST CLOUD       MOCLDY    61  61 100 SE5       29.59F
SAUK CENTRE    CLOUDY    58  58  99 SW9       29.61R
PAYNESVILLE    PTCLDY    61  62 100 S3        29.60R
AITKIN         MOCLDY    61  59  94 S8        29.58S
PINE RIVER     MOCLDY    57  55  94 SE12      29.58F
BRAINERD       MOCLDY    60  60 100 SE5       29.56F
STAPLES        CLOUDY    57  57 100 S8        29.57R FOG
LONG PRAIRIE   CLOUDY    59  59 100 S12       29.61R FOG
LITTLE FALLS   CLEAR     59  57  94 SE6       29.57F
LITCHFIELD     CLOUDY    63  63 100 SE5       29.60F
BUFFALO        MOCLDY    64  61  88 SW5       29.61S
MAPLE LAKE     PTCLDY    64  63  97 CALM      29.60F
HUTCHINSON     MOCLDY    62  62  99 SE3       29.62S
$$
MNZ037-044-045-052-053-201200-
   East Central Minnesota

CITY           SKY/WX    TMP DP  RH WIND       PRES   REMARKS
PRINCETON      CLOUDY    70  66  88 S5        29.59S
MORA           LGT RAIN  61  61 100 CALM      29.62R
CAMBRIDGE      CLOUDY    70  66  88 S6        29.60R
RUSH CITY      MOCLDY    65  64  95 SE3       29.61R
MOOSE LAKE     CLOUDY    61  59  94 CALM      29.60R
HINCKLEY       CLOUDY    63  63 100 CALM      29.62R
CLOQUET        CLOUDY    61  57  88 E7        29.63F
MCGREGOR       CLOUDY    61  61 100 CALM      29.62R
$$
MNZ071>073-080-081-089-090-097-098-201200-
   Southwest Minnesota

CITY           SKY/WX    TMP DP  RH WIND       PRES   REMARKS
MONTEVIDEO     CLEAR     57  57 100 NW8       29.66R
GRANITE FALLS  CLEAR     59  57  92 W10       29.68R
CANBY          CLEAR     59  56  88 W10G17    29.68R
MARSHALL       CLEAR     60  55  83 W15       29.67R
REDWOOD FALLS  CLEAR     62  58  86 W13       29.64R
OLIVIA         CLEAR     59  57  94 W7        29.64R
PIPESTONE      CLEAR     57  54  88 W8        29.72R
WINDOM         CLOUDY    61  57  88 SW3       29.66R
WORTHINGTON    CLEAR     58  54  86 W10       29.70R
JACKSON        CLOUDY    59  57  94 CALM      29.66F
TRACY          CLEAR     60  56  86 W9        29.69R
SLAYTON        PTCLDY    60  53  79 W10       29.70R
$$
MNZ065>067-074>077-082>085-091>093-201200-
   South Central Minnesota

CITY           SKY/WX    TMP DP  RH WIND       PRES   REMARKS
MANKATO        CLEAR     64  62  93 W6        29.66R
NEW ULM        CLOUDY    61  61 100 S6        29.62S
ST JAMES       CLEAR     61  57  88 SE6       29.64F
FAIRMONT       PTCLDY    61  59  93 CALM      29.67R
GLENCOE        CLOUDY    64  64 100 CALM      29.60F
FARIBAULT      CLOUDY    70  66  88 S7        29.64R
OWATONNA       PTCLDY    70  64  83 SE13G20   29.64S
WASECA         CLOUDY    72  68  88 SW6       29.66R
ALBERT LEA     PTCLDY    72  68  88 S8        29.65F
$$
MNZ078>079-086>088-094>096-201200-
   Southeast Minnesota

CITY           SKY/WX    TMP DP  RH WIND       PRES   REMARKS
ROCHESTER      CLOUDY    70  64  81 S14       29.70R
RED WING       MOCLDY    73  63  68 SE6       29.64F
STANTON        CLOUDY    71  65  80 S12G20    29.62S
DODGE CENTER   CLOUDY    70  63  78 S13G18    29.67F
WINONA         CLOUDY    73  64  73 S3        29.70R
AUSTIN         MOCLDY    70  64  83 S10       29.68S
PRESTON        CLOUDY    70  63  79 S14G22    29.71R
$$
ABBREVIATIONS USED IN REMARKS
   TC - TEMPERATURES IN CELSIUS
  WCI - WIND CHILL INDEX
   HX - HEAT INDEX
  VSB - VISIBILITY
$$



USA.gov is the U.S. government's official web portal to all federal, state and local government web resources and services.